ONEWEB-0295, 49084

Orbit data source: Space-Track

ONEWEB-0295, 49084 is a payload satellite owned by One Web (NAA) (UK) in LEO that was launched on Sat, 21 Aug 2021 UTC via a SOYUZ-2-1B launch vehicle from the Tyuratam Missile And Space Complex (TTMTR). Payload-class satellites include a variety of spacecraft equipped with specific instruments for various scientific and technological missions. These include communications satellites like Starlink; space stations such as the ISS; scientific satellites like the Hubble; Earth observation satellites from companies like Planet Labs, Umbra, and HawkEye 360; GPS; miniature CubeSats for education and research; and military/defense satellites.

Loading next visibility...
Identifier
49084, 2021-075K
Orbit
LEO
Country
Flag of UKUK
Related business
Manufacturer
One Web
Mission
Operational Commercial Communications
Bus & Motor
ARROW, Unknown motor
Mass
148 kg wet, ~140 kg dry
Launch date (UTC)
2021-08-21 (5 years ago)
Launch vehicle
SOYUZ-2-1B
Launch site
Tyuratam Missile And Space Complex (TTMTR)
Object type
Payload
Rocket body
Debris
Shape & HBR
Trap Box + 2 Pan, 6.7 m
Radar Cross Section
3.464 m², Large (>1 m²)

Expand to show TLE details & history
Last TLE update: 8 hours ago

TLE from 8 hours ago
0 ONEWEB-0295
1 49084U 21075K   26130.14371894  .00000005  00000-0 -20820-4 0  9991
2 49084  87.9170  13.4325 0001682  92.4943 267.6381 13.17647919228581
Epoch: 2026-05-10T03:26Z
TLE epoch observation values (Epoch: 2026-05-10T03:26:57.316Z)
Latitude
-0.00003°
Longitude
93.74266°
Altitude
1,196.669 km
Speed
7.255 km/s
True Right ascension
00h 53m 43s
True Declination
0° 00' 00"
Sunlit
Object was in daylight at epoch
Visualization orbit readout
Latitude
Unknown
Longitude
Unknown
Altitude
Unknown
Speed
Unknown
Apparent Right ascension
Unknown
Apparent Declination
Unknown
Sunlit
N/A
Visualization observer readout
Local Sidereal Time
19:49:01
Azimuth
Unknown
Elevation
Unknown
Doppler factor
Unknown
Orbital elements
Apogee altitude
1,192.099 km
Perigee altitude
1,189.553 km
Semi-major axis
7,568.963 km
Eccentricity
0.00017
Inclination
87.917°
RAAN
13.4325°
Arg. of periapsis
92.4943°
True anomaly
267.61884°
Mean anomaly
267.6381°
Eccentric anomaly
267.62847°
Mean motion
3.29601 °/min
Orbital period
109.22 mins
BSTAR
-0.00002082
Loading maneuver chart data...
Computing Atmospheric mass density...
Loading historical data...
Loading historical data...
Loading historical data...
Loading historical data...
Loading historical data...
Loading historical data...
Loading historical data...

Documentation

Showing up to 5 results
|